Time,TemperatureF,DewpointF,PressureIn,WindDirection,WindDirectionDegrees,WindSpeedMPH,WindSpeedGustMPH,Humidity,HourlyPrecipIn,Conditions,Clouds,dailyrainin,SoftwareType,DateUTC
2013-10-20 00:00:00,49.9,45.9,30.00,NNE,16,2.0,7.0,86,0.00,,SKC,0.00,VWS V14.01,2013-10-20 04:00:00,
2013-10-20 00:01:00,49.9,45.9,30.00,NE,34,3.0,4.0,86,0.00,,SKC,0.00,VWS V14.01,2013-10-20 04:01:00,
2013-10-20 00:02:00,49.8,45.8,30.00,NNE,23,3.0,7.0,86,0.00,,SKC,0.00,VWS V14.01,2013-10-20 04:02:00,
2013-10-20 00:07:00,49.7,45.7,30.00,NE,35,3.0,7.0,86,0.00,,SKC,0.00,VWS V14.01,2013-10-20 04:07:00,
2013-10-20 00:12:00,49.5,45.8,30.00,NE,37,3.0,7.0,87,0.00,,SKC,0.00,VWS V14.01,2013-10-20 04:12:00,
2013-10-20 00:17:00,49.3,45.6,30.00,NNE,29,2.0,7.0,87,0.00,,SKC,0.00,VWS V14.01,2013-10-20 04:17:00,
2013-10-20 00:22:00,49.2,45.5,30.00,NE,43,2.0,7.0,87,0.00,,SKC,0.00,VWS V14.01,2013-10-20 04:22:00,
2013-10-20 00:27:00,49.2,45.2,30.00,NNE,17,4.0,7.0,86,0.00,,SKC,0.00,VWS V14.01,2013-10-20 04:27:00,
2013-10-20 00:30:00,49.1,45.1,30.00,North,1,2.0,7.0,86,0.00,,SKC,0.00,VWS V14.01,2013-10-20 04:30:00,
2013-10-20 00:32:00,49.1,45.1,30.00,North,350,1.0,5.0,86,0.00,,SKC,0.00,VWS V14.01,2013-10-20 04:32:00,
2013-10-20 00:37:00,49.1,45.1,30.01,NW,323,7.0,7.0,86,0.00,,SKC,0.00,VWS V14.01,2013-10-20 04:37:00,
2013-10-20 00:42:00,49.0,45.0,30.01,North,10,2.0,7.0,86,0.00,,SKC,0.00,VWS V14.01,2013-10-20 04:42:00,
2013-10-20 00:47:00,49.0,45.0,30.00,NNE,23,2.0,7.0,86,0.00,,SKC,0.00,VWS V14.01,2013-10-20 04:47:00,
2013-10-20 00:52:00,48.9,44.9,30.00,NE,55,6.0,7.0,86,0.00,,SKC,0.00,VWS V14.01,2013-10-20 04:52:00,
2013-10-20 00:57:00,48.7,44.7,30.01,NNE,12,2.0,7.0,86,0.00,,SKC,0.00,VWS V14.01,2013-10-20 04:57:00,
2013-10-20 01:00:00,48.6,44.6,30.01,NNW,335,3.0,8.0,86,0.00,,SKC,0.00,VWS V14.01,2013-10-20 05:00:00,
2013-10-20 01:01:00,48.6,44.6,30.01,North,8,5.0,8.0,86,0.00,,SKC,0.00,VWS V14.01,2013-10-20 05:01:00,
2013-10-20 01:06:00,48.6,44.6,30.01,North,360,3.0,8.0,86,0.00,,SKC,0.00,VWS V14.01,2013-10-20 05:06:00,
2013-10-20 01:11:00,48.5,44.5,30.01,NE,43,3.0,8.0,86,0.00,,SKC,0.00,VWS V14.01,2013-10-20 05:11:00,
2013-10-20 01:16:00,48.5,44.5,30.01,NNE,15,4.0,10.0,86,0.00,,SKC,0.00,VWS V14.01,2013-10-20 05:16:00,
2013-10-20 01:21:00,48.4,44.4,30.01,North,3,4.0,10.0,86,0.00,,SKC,0.00,VWS V14.01,2013-10-20 05:21:00,
2013-10-20 01:26:00,48.2,44.2,30.01,NNW,346,3.0,10.0,86,0.00,,SKC,0.00,VWS V14.01,2013-10-20 05:26:00,
2013-10-20 01:30:00,48.1,44.1,30.01,NNW,336,2.0,10.0,86,0.00,,SKC,0.00,VWS V14.01,2013-10-20 05:30:00,
2013-10-20 01:31:00,48.0,44.3,30.01,NNW,339,3.0,7.0,87,0.00,,SKC,0.00,VWS V14.01,2013-10-20 05:31:00,
2013-10-20 01:36:00,47.9,44.2,30.01,North,352,4.0,7.0,87,0.00,,SKC,0.00,VWS V14.01,2013-10-20 05:36:00,
2013-10-20 01:41:00,47.7,44.3,30.01,NNW,338,3.0,7.0,88,0.00,,SKC,0.00,VWS V14.01,2013-10-20 05:41:00,
2013-10-20 01:46:00,47.5,44.1,30.01,NNW,348,2.0,7.0,88,0.00,,SKC,0.00,VWS V14.01,2013-10-20 05:46:00,
2013-10-20 01:51:00,47.2,43.8,30.01,NNE,32,2.0,7.0,88,0.00,,SKC,0.00,VWS V14.01,2013-10-20 05:51:00,
2013-10-20 01:56:00,46.7,43.6,30.01,NE,37,3.0,7.0,89,0.00,,SKC,0.00,VWS V14.01,2013-10-20 05:56:00,
2013-10-20 02:00:00,46.7,43.9,30.02,NE,34,2.0,7.0,90,0.00,,SKC,0.00,VWS V14.01,2013-10-20 06:00:00,
2013-10-20 02:01:00,46.7,43.6,30.02,NE,39,3.0,5.0,89,0.00,,SKC,0.00,VWS V14.01,2013-10-20 06:01:00,
2013-10-20 02:06:00,46.5,43.4,30.02,NNE,22,2.0,5.0,89,0.00,,SKC,0.00,VWS V14.01,2013-10-20 06:06:00,
2013-10-20 02:11:00,46.5,43.1,30.02,North,5,2.0,7.0,88,0.00,,SKC,0.00,VWS V14.01,2013-10-20 06:11:00,
2013-10-20 02:16:00,46.4,42.8,30.02,NE,51,3.0,7.0,87,0.00,,SKC,0.00,VWS V14.01,2013-10-20 06:16:00,
2013-10-20 02:21:00,46.4,42.8,30.02,NNE,26,2.0,7.0,87,0.00,,SKC,0.00,VWS V14.01,2013-10-20 06:21:00,
2013-10-20 02:26:00,46.2,42.5,30.02,NNW,340,2.0,8.0,87,0.00,,SKC,0.00,VWS V14.01,2013-10-20 06:26:00,
2013-10-20 02:30:00,46.1,42.5,30.02,NNE,27,3.0,8.0,87,0.00,,SKC,0.00,VWS V14.01,2013-10-20 06:30:00,
2013-10-20 02:31:00,46.0,42.3,30.03,NE,41,2.0,4.0,87,0.00,,SKC,0.00,VWS V14.01,2013-10-20 06:31:00,
2013-10-20 02:36:00,45.8,42.2,30.03,NE,37,2.0,4.0,87,0.00,,SKC,0.00,VWS V14.01,2013-10-20 06:36:00,
2013-10-20 02:41:00,45.6,42.0,30.03,NE,44,3.0,4.0,87,0.00,,SKC,0.00,VWS V14.01,2013-10-20 06:41:00,
2013-10-20 02:46:00,45.5,41.9,30.03,NE,36,1.0,4.0,87,0.00,,SKC,0.00,VWS V14.01,2013-10-20 06:46:00,
2013-10-20 02:51:00,45.2,41.6,30.03,NE,39,2.0,5.0,87,0.00,,SKC,0.00,VWS V14.01,2013-10-20 06:51:00,
2013-10-20 02:56:00,45.1,41.5,30.03,NNE,26,7.0,7.0,87,0.00,,SKC,0.00,VWS V14.01,2013-10-20 06:56:00,
2013-10-20 03:00:00,45.3,41.7,30.02,NNW,332,3.0,7.0,87,0.00,,SKC,0.00,VWS V14.01,2013-10-20 07:00:00,
2013-10-20 03:01:00,45.4,41.5,30.03,NNE,29,4.0,7.0,86,0.00,,SKC,0.00,VWS V14.01,2013-10-20 07:01:00,
2013-10-20 03:06:00,45.4,41.5,30.02,North,6,2.0,8.0,86,0.00,,SKC,0.00,VWS V14.01,2013-10-20 07:06:00,
2013-10-20 03:11:00,45.0,41.4,30.03,NNW,348,2.0,8.0,87,0.00,,SKC,0.00,VWS V14.01,2013-10-20 07:11:00,
2013-10-20 03:16:00,44.6,41.0,30.03,North,356,2.0,8.0,87,0.00,,SKC,0.00,VWS V14.01,2013-10-20 07:16:00,
2013-10-20 03:21:00,44.3,41.0,30.03,NNE,26,1.0,8.0,88,0.00,,SKC,0.00,VWS V14.01,2013-10-20 07:21:00,
2013-10-20 03:26:00,44.2,40.9,30.03,NNE,30,1.0,8.0,88,0.00,,SKC,0.00,VWS V14.01,2013-10-20 07:26:00,
2013-10-20 03:30:00,44.1,40.8,30.03,NNE,30,0.0,8.0,88,0.00,,SKC,0.00,VWS V14.01,2013-10-20 07:30:00,
2013-10-20 03:31:00,44.0,40.7,30.03,NNE,30,1.0,3.0,88,0.00,,SKC,0.00,VWS V14.01,2013-10-20 07:31:00,
2013-10-20 03:36:00,43.8,40.8,30.03,NNE,30,1.0,3.0,89,0.00,,SKC,0.00,VWS V14.01,2013-10-20 07:36:00,
2013-10-20 03:41:00,43.4,40.4,30.03,NNE,30,1.0,3.0,89,0.00,,SKC,0.00,VWS V14.01,2013-10-20 07:41:00,
2013-10-20 03:46:00,43.1,40.4,30.03,NNE,30,0.0,3.0,90,0.00,,SKC,0.00,VWS V14.01,2013-10-20 07:46:00,
2013-10-20 03:51:00,42.8,40.1,30.03,NNE,30,1.0,3.0,90,0.00,,SKC,0.00,VWS V14.01,2013-10-20 07:51:00,
2013-10-20 03:56:00,42.7,40.0,30.03,NNE,31,0.0,3.0,90,0.00,,SKC,0.00,VWS V14.01,2013-10-20 07:56:00,
2013-10-20 04:00:00,42.4,40.0,30.03,NNE,32,0.0,3.0,91,0.00,,SKC,0.00,VWS V14.01,2013-10-20 08:00:00,
2013-10-20 04:01:00,42.3,39.9,30.03,NNE,31,2.0,2.0,91,0.00,,SKC,0.00,VWS V14.01,2013-10-20 08:01:00,
2013-10-20 04:06:00,42.1,39.7,30.03,NNE,31,0.0,2.0,91,0.00,,SKC,0.00,VWS V14.01,2013-10-20 08:06:00,
2013-10-20 04:11:00,41.7,39.5,30.03,NNE,31,0.0,2.0,92,0.00,,SKC,0.00,VWS V14.01,2013-10-20 08:11:00,
2013-10-20 04:16:00,41.3,39.4,30.03,NNE,31,0.0,2.0,93,0.00,,SKC,0.00,VWS V14.01,2013-10-20 08:16:00,
2013-10-20 04:21:00,41.2,39.3,30.03,NNE,31,0.0,2.0,93,0.00,,SKC,0.00,VWS V14.01,2013-10-20 08:21:00,
2013-10-20 04:26:00,40.9,39.0,30.03,NNE,31,0.0,2.0,93,0.00,,SKC,0.00,VWS V14.01,2013-10-20 08:26:00,
2013-10-20 04:30:00,40.7,38.8,30.04,NNE,31,0.0,2.0,93,0.00,,SKC,0.00,VWS V14.01,2013-10-20 08:30:00,
2013-10-20 04:31:00,40.6,38.7,30.04,NNE,31,0.0,0.0,93,0.00,,SKC,0.00,VWS V14.01,2013-10-20 08:31:00,
2013-10-20 04:36:00,40.2,38.3,30.04,NNE,31,0.0,0.0,93,0.00,,SKC,0.00,VWS V14.01,2013-10-20 08:36:00,
2013-10-20 04:41:00,39.9,38.3,30.04,NNE,32,0.0,0.0,94,0.00,,SKC,0.00,VWS V14.01,2013-10-20 08:41:00,
2013-10-20 04:46:00,39.6,38.0,30.04,NNE,32,0.0,0.0,94,0.00,,SKC,0.00,VWS V14.01,2013-10-20 08:46:00,
2013-10-20 04:51:00,39.6,38.3,30.04,NNE,32,0.0,0.0,95,0.00,,SKC,0.00,VWS V14.01,2013-10-20 08:51:00,
2013-10-20 04:56:00,39.2,37.9,30.04,NNE,31,0.0,0.0,95,0.00,,SKC,0.00,VWS V14.01,2013-10-20 08:56:00,
2013-10-20 05:00:00,38.9,37.3,30.04,NNE,31,0.0,0.0,94,0.00,,SKC,0.00,VWS V14.01,2013-10-20 09:00:00,
2013-10-20 05:01:00,38.8,37.5,30.04,NNE,31,0.0,0.0,95,0.00,,SKC,0.00,VWS V14.01,2013-10-20 09:01:00,
2013-10-20 05:06:00,38.5,37.2,30.05,NNE,31,0.0,0.0,95,0.00,,SKC,0.00,VWS V14.01,2013-10-20 09:06:00,
2013-10-20 05:11:00,38.4,37.1,30.04,NNE,31,0.0,0.0,95,0.00,,SKC,0.00,VWS V14.01,2013-10-20 09:11:00,
2013-10-20 05:16:00,38.4,37.4,30.05,NNE,31,0.0,0.0,96,0.00,,SKC,0.00,VWS V14.01,2013-10-20 09:16:00,
2013-10-20 05:21:00,38.6,37.8,30.05,NNE,32,0.0,0.0,97,0.00,,SKC,0.00,VWS V14.01,2013-10-20 09:21:00,
2013-10-20 05:26:00,38.6,37.8,30.05,NNE,31,0.0,0.0,97,0.00,,SKC,0.00,VWS V14.01,2013-10-20 09:26:00,
2013-10-20 05:30:00,38.5,37.7,30.05,NNE,32,0.0,1.0,97,0.00,,SKC,0.00,VWS V14.01,2013-10-20 09:30:00,
2013-10-20 05:31:00,38.6,37.8,30.05,NNE,31,0.0,0.0,97,0.00,,SKC,0.00,VWS V14.01,2013-10-20 09:31:00,
2013-10-20 05:36:00,38.6,37.8,30.05,NNE,32,0.0,0.0,97,0.00,,SKC,0.00,VWS V14.01,2013-10-20 09:36:00,
2013-10-20 05:41:00,38.4,37.4,30.05,NNE,32,0.0,0.0,96,0.00,,SKC,0.00,VWS V14.01,2013-10-20 09:41:00,
2013-10-20 05:46:00,38.4,37.6,30.05,NNE,32,0.0,0.0,97,0.00,,SKC,0.00,VWS V14.01,2013-10-20 09:46:00,
2013-10-20 05:51:00,38.2,37.4,30.05,NNE,31,0.0,0.0,97,0.00,,SKC,0.00,VWS V14.01,2013-10-20 09:51:00,
2013-10-20 05:56:00,38.2,37.4,30.05,NNE,32,0.0,1.0,97,0.00,,SKC,0.00,VWS V14.01,2013-10-20 09:56:00,
2013-10-20 06:00:00,38.2,37.4,30.05,NNE,31,0.0,1.0,97,0.00,,SKC,0.00,VWS V14.01,2013-10-20 10:00:00,
2013-10-20 06:01:00,38.2,37.4,30.05,NNE,31,0.0,0.0,97,0.00,,SKC,0.00,VWS V14.01,2013-10-20 10:01:00,
2013-10-20 06:06:00,38.4,37.6,30.05,NNE,32,0.0,0.0,97,0.00,,SKC,0.00,VWS V14.01,2013-10-20 10:06:00,
2013-10-20 06:11:00,38.1,37.3,30.05,NNE,31,0.0,0.0,97,0.00,,SKC,0.00,VWS V14.01,2013-10-20 10:11:00,
2013-10-20 06:16:00,37.7,36.7,30.06,NNE,32,0.0,0.0,96,0.00,,SKC,0.00,VWS V14.01,2013-10-20 10:16:00,
2013-10-20 06:21:00,37.6,36.8,30.06,NNE,31,0.0,0.0,97,0.00,,SKC,0.00,VWS V14.01,2013-10-20 10:21:00,
2013-10-20 06:26:00,37.5,36.7,30.06,NNE,31,0.0,0.0,97,0.00,,SKC,0.00,VWS V14.01,2013-10-20 10:26:00,
2013-10-20 06:30:00,37.7,36.9,30.06,NNE,31,0.0,0.0,97,0.00,,SKC,0.00,VWS V14.01,2013-10-20 10:30:00,
2013-10-20 06:31:00,37.6,36.8,30.07,NNE,31,0.0,0.0,97,0.00,,SKC,0.00,VWS V14.01,2013-10-20 10:31:00,
2013-10-20 06:36:00,37.7,36.9,30.06,NNE,32,0.0,1.0,97,0.00,,SKC,0.00,VWS V14.01,2013-10-20 10:36:00,
2013-10-20 06:41:00,37.5,36.7,30.06,NNE,32,0.0,1.0,97,0.00,,SKC,0.00,VWS V14.01,2013-10-20 10:41:00,
2013-10-20 06:46:00,37.3,36.5,30.07,NNE,31,0.0,1.0,97,0.00,,SKC,0.00,VWS V14.01,2013-10-20 10:46:00,
2013-10-20 06:51:00,37.1,36.3,30.07,NNE,31,0.0,1.0,97,0.00,,SKC,0.00,VWS V14.01,2013-10-20 10:51:00,
2013-10-20 06:56:00,37.0,36.2,30.07,NNE,31,0.0,1.0,97,0.00,,SKC,0.00,VWS V14.01,2013-10-20 10:56:00,
2013-10-20 07:00:00,36.9,36.1,30.07,NNE,32,0.0,1.0,97,0.00,,SKC,0.00,VWS V14.01,2013-10-20 11:00:00,
2013-10-20 07:01:00,36.8,36.0,30.07,NNE,31,0.0,0.0,97,0.00,,SKC,0.00,VWS V14.01,2013-10-20 11:01:00,
2013-10-20 07:06:00,36.6,35.8,30.07,NNE,31,0.0,0.0,97,0.00,,SKC,0.00,VWS V14.01,2013-10-20 11:06:00,
2013-10-20 07:11:00,36.4,35.6,30.07,NNE,31,0.0,0.0,97,0.00,,SKC,0.00,VWS V14.01,2013-10-20 11:11:00,
2013-10-20 07:16:00,36.2,35.4,30.07,NNE,31,0.0,0.0,97,0.00,,SKC,0.00,VWS V14.01,2013-10-20 11:16:00,
2013-10-20 07:21:00,36.1,35.3,30.07,NNE,31,0.0,0.0,97,0.00,,SKC,0.00,VWS V14.01,2013-10-20 11:21:00,
2013-10-20 07:26:00,36.0,35.2,30.07,NNE,31,0.0,0.0,97,0.00,,SKC,0.00,VWS V14.01,2013-10-20 11:26:00,
2013-10-20 07:30:00,35.8,35.0,30.07,NNE,31,0.0,0.0,97,0.00,,SKC,0.00,VWS V14.01,2013-10-20 11:30:00,
2013-10-20 07:31:00,35.7,34.9,30.08,NNE,31,0.0,0.0,97,0.00,,SKC,0.00,VWS V14.01,2013-10-20 11:31:00,
2013-10-20 07:36:00,35.3,34.5,30.08,NNE,32,0.0,0.0,97,0.00,,SKC,0.00,VWS V14.01,2013-10-20 11:36:00,
2013-10-20 07:41:00,35.3,34.8,30.08,NNE,31,0.0,0.0,98,0.00,,SKC,0.00,VWS V14.01,2013-10-20 11:41:00,
2013-10-20 07:46:00,35.3,34.8,30.08,NNE,32,0.0,0.0,98,0.00,,SKC,0.00,VWS V14.01,2013-10-20 11:46:00,
2013-10-20 07:51:00,35.3,34.8,30.08,NNE,31,0.0,0.0,98,0.00,,SKC,0.00,VWS V14.01,2013-10-20 11:51:00,
2013-10-20 07:56:00,35.0,34.5,30.08,NNE,32,0.0,0.0,98,0.00,,SKC,0.00,VWS V14.01,2013-10-20 11:56:00,
2013-10-20 08:00:00,34.9,34.4,30.08,NNE,31,0.0,0.0,98,0.00,,SKC,0.00,VWS V14.01,2013-10-20 12:00:00,
2013-10-20 08:01:00,34.9,34.4,30.08,NNE,31,0.0,0.0,98,0.00,,SKC,0.00,VWS V14.01,2013-10-20 12:01:00,
2013-10-20 08:06:00,35.0,34.5,30.09,NNE,32,0.0,1.0,98,0.00,,SKC,0.00,VWS V14.01,2013-10-20 12:06:00,
2013-10-20 08:11:00,34.9,34.4,30.09,NNE,31,0.0,1.0,98,0.00,,SKC,0.00,VWS V14.01,2013-10-20 12:11:00,
2013-10-20 08:16:00,34.9,34.4,30.09,NNE,31,0.0,1.0,98,0.00,,SKC,0.00,VWS V14.01,2013-10-20 12:16:00,
2013-10-20 08:21:00,34.9,34.4,30.09,NNE,32,0.0,1.0,98,0.00,,SKC,0.00,VWS V14.01,2013-10-20 12:21:00,
2013-10-20 08:26:00,34.9,34.4,30.09,NNE,31,0.0,1.0,98,0.00,,SKC,0.00,VWS V14.01,2013-10-20 12:26:00,
2013-10-20 08:30:00,34.9,34.4,30.09,NNE,32,0.0,1.0,98,0.00,,SKC,0.00,VWS V14.01,2013-10-20 12:30:00,
2013-10-20 08:31:00,34.9,34.4,30.10,NNE,31,0.0,0.0,98,0.00,,SKC,0.00,VWS V14.01,2013-10-20 12:31:00,
2013-10-20 08:36:00,35.1,34.6,30.10,NNE,31,0.0,0.0,98,0.00,,SKC,0.00,VWS V14.01,2013-10-20 12:36:00,
2013-10-20 08:41:00,35.7,35.2,30.10,NNE,31,0.0,1.0,98,0.00,,SKC,0.00,VWS V14.01,2013-10-20 12:41:00,
2013-10-20 08:46:00,36.1,35.6,30.10,NNE,31,0.0,1.0,98,0.00,,SKC,0.00,VWS V14.01,2013-10-20 12:46:00,
2013-10-20 08:51:00,36.4,35.9,30.10,NNE,31,0.0,1.0,98,0.00,,SKC,0.00,VWS V14.01,2013-10-20 12:51:00,
2013-10-20 08:56:00,36.8,36.5,30.10,NNE,32,0.0,1.0,99,0.00,,SKC,0.00,VWS V14.01,2013-10-20 12:56:00,
2013-10-20 09:00:00,37.0,36.8,30.10,NNE,31,0.0,1.0,99,0.00,,SKC,0.00,VWS V14.01,2013-10-20 13:00:00,
2013-10-20 09:01:00,37.1,36.8,30.10,NNE,31,0.0,0.0,99,0.00,,SKC,0.00,VWS V14.01,2013-10-20 13:01:00,
2013-10-20 09:06:00,37.6,37.3,30.10,NNE,31,0.0,0.0,99,0.00,,SKC,0.00,VWS V14.01,2013-10-20 13:06:00,
2013-10-20 09:11:00,38.0,37.7,30.11,NNE,31,0.0,0.0,99,0.00,,SKC,0.00,VWS V14.01,2013-10-20 13:11:00,
2013-10-20 09:16:00,38.1,37.8,30.11,NNE,31,0.0,0.0,99,0.00,,SKC,0.00,VWS V14.01,2013-10-20 13:16:00,
2013-10-20 09:21:00,38.6,38.3,30.11,NNE,32,0.0,0.0,99,0.00,,SKC,0.00,VWS V14.01,2013-10-20 13:21:00,
2013-10-20 09:26:00,39.2,38.9,30.11,NNE,31,0.0,0.0,99,0.00,,SKC,0.00,VWS V14.01,2013-10-20 13:26:00,
2013-10-20 09:30:00,39.5,39.2,30.11,NNE,31,1.0,1.0,99,0.00,,SKC,0.00,VWS V14.01,2013-10-20 13:30:00,
2013-10-20 09:31:00,39.6,39.3,30.11,NNE,29,0.0,2.0,99,0.00,,SKC,0.00,VWS V14.01,2013-10-20 13:31:00,
2013-10-20 09:36:00,40.1,39.8,30.11,NNE,29,0.0,2.0,99,0.00,,SKC,0.00,VWS V14.01,2013-10-20 13:36:00,
2013-10-20 09:41:00,40.5,40.2,30.11,NNE,28,0.0,2.0,99,0.00,,SKC,0.00,VWS V14.01,2013-10-20 13:41:00,
2013-10-20 09:46:00,40.9,40.6,30.11,North,11,1.0,2.0,99,0.00,,SKC,0.00,VWS V14.01,2013-10-20 13:46:00,
2013-10-20 09:51:00,41.5,40.7,30.11,North,6,1.0,3.0,97,0.00,,SKC,0.00,VWS V14.01,2013-10-20 13:51:00,
2013-10-20 09:56:00,42.1,40.5,30.11,NNE,15,0.0,3.0,94,0.00,,SKC,0.00,VWS V14.01,2013-10-20 13:56:00,
2013-10-20 10:00:00,42.4,40.5,30.11,NW,321,1.0,3.0,93,0.00,,SKC,0.00,VWS V14.01,2013-10-20 14:00:00,
2013-10-20 10:01:00,42.5,40.3,30.11,NNW,333,3.0,3.0,92,0.00,,SKC,0.00,VWS V14.01,2013-10-20 14:01:00,
2013-10-20 10:06:00,43.0,40.3,30.11,NW,318,1.0,4.0,90,0.00,,SKC,0.00,VWS V14.01,2013-10-20 14:06:00,
2013-10-20 10:11:00,43.4,40.1,30.11,NNW,331,0.0,4.0,88,0.00,,SKC,0.00,VWS V14.01,2013-10-20 14:11:00,
2013-10-20 10:16:00,43.8,40.2,30.11,North,353,2.0,4.0,87,0.00,,SKC,0.00,VWS V14.01,2013-10-20 14:16:00,
2013-10-20 10:21:00,44.1,40.2,30.11,North,6,3.0,5.0,86,0.00,,SKC,0.00,VWS V14.01,2013-10-20 14:21:00,
2013-10-20 10:26:00,44.5,40.3,30.11,NW,321,0.0,5.0,85,0.00,,SKC,0.00,VWS V14.01,2013-10-20 14:26:00,
2013-10-20 10:30:00,44.8,40.6,30.11,NNW,328,4.0,5.0,85,0.00,,SKC,0.00,VWS V14.01,2013-10-20 14:30:00,
2013-10-20 10:31:00,44.9,40.4,30.11,NNW,332,1.0,5.0,84,0.00,,SKC,0.00,VWS V14.01,2013-10-20 14:31:00,
2013-10-20 10:36:00,45.3,40.5,30.11,North,351,2.0,5.0,83,0.00,,SKC,0.00,VWS V14.01,2013-10-20 14:36:00,
2013-10-20 10:41:00,45.8,40.0,30.11,NW,314,2.0,5.0,80,0.00,,SKC,0.00,VWS V14.01,2013-10-20 14:41:00,
2013-10-20 10:46:00,46.4,40.6,30.11,NNE,22,2.0,5.0,80,0.00,,SKC,0.00,VWS V14.01,2013-10-20 14:46:00,
2013-10-20 10:51:00,47.1,40.6,30.11,NNW,338,1.0,5.0,78,0.00,,SKC,0.00,VWS V14.01,2013-10-20 14:51:00,
2013-10-20 10:56:00,47.5,40.3,30.11,North,356,0.0,5.0,76,0.00,,SKC,0.00,VWS V14.01,2013-10-20 14:56:00,
2013-10-20 11:00:00,48.0,40.5,30.11,North,353,3.0,5.0,75,0.00,,SKC,0.00,VWS V14.01,2013-10-20 15:00:00,
2013-10-20 11:01:00,48.1,40.6,30.11,NNW,346,0.0,3.0,75,0.00,,SKC,0.00,VWS V14.01,2013-10-20 15:01:00,
2013-10-20 11:06:00,48.4,39.8,30.11,NE,55,0.0,4.0,72,0.00,,SKC,0.00,VWS V14.01,2013-10-20 15:06:00,
2013-10-20 11:11:00,48.7,39.7,30.11,NW,317,1.0,4.0,71,0.00,,SKC,0.00,VWS V14.01,2013-10-20 15:11:00,
2013-10-20 11:16:00,49.1,39.4,30.11,NNW,348,2.0,4.0,69,0.00,,SKC,0.00,VWS V14.01,2013-10-20 15:16:00,
2013-10-20 11:21:00,49.3,40.3,30.11,NNW,334,2.0,4.0,71,0.00,,SKC,0.00,VWS V14.01,2013-10-20 15:21:00,
2013-10-20 11:26:00,49.9,40.5,30.11,NNW,347,4.0,6.0,70,0.00,,SKC,0.00,VWS V14.01,2013-10-20 15:26:00,
2013-10-20 11:30:00,50.1,39.6,30.11,NE,51,1.0,6.0,67,0.00,,SKC,0.00,VWS V14.01,2013-10-20 15:30:00,
2013-10-20 11:31:00,50.2,39.7,30.11,NE,51,0.0,1.0,67,0.00,,SKC,0.00,VWS V14.01,2013-10-20 15:31:00,
2013-10-20 11:36:00,50.8,40.6,30.11,NNE,29,2.0,4.0,68,0.00,,SKC,0.00,VWS V14.01,2013-10-20 15:36:00,
2013-10-20 11:41:00,51.3,39.2,30.11,NNW,334,2.0,5.0,63,0.00,,SKC,0.00,VWS V14.01,2013-10-20 15:41:00,
2013-10-20 11:46:00,51.5,39.7,30.11,NNW,331,0.0,5.0,64,0.00,,SKC,0.00,VWS V14.01,2013-10-20 15:46:00,
2013-10-20 11:51:00,52.0,39.0,30.11,NNW,334,3.0,5.0,61,0.00,,SKC,0.00,VWS V14.01,2013-10-20 15:51:00,
2013-10-20 11:56:00,52.3,38.4,30.11,NW,317,2.0,7.0,59,0.00,,SKC,0.00,VWS V14.01,2013-10-20 15:56:00,
2013-10-20 12:00:00,48.0,40.5,30.11,North,353,3.0,5.0,75,0.00,,SKC,0.00,VWS V14.01,2013-10-20 16:00:00,
2013-10-20 12:01:00,52.5,39.5,30.11,North,5,4.0,4.0,61,0.00,,SKC,0.00,VWS V14.01,2013-10-20 16:01:00,
2013-10-20 12:06:00,53.0,39.5,30.11,NW,314,0.0,4.0,60,0.00,,SKC,0.00,VWS V14.01,2013-10-20 16:06:00,
2013-10-20 12:11:00,53.6,38.3,30.11,WNW,287,0.0,4.0,56,0.00,,SKC,0.00,VWS V14.01,2013-10-20 16:11:00,
2013-10-20 12:16:00,53.8,38.9,30.10,NNW,343,3.0,5.0,57,0.00,,SKC,0.00,VWS V14.01,2013-10-20 16:16:00,
2013-10-20 12:21:00,53.9,37.7,30.10,WNW,302,0.0,5.0,54,0.00,,SKC,0.00,VWS V14.01,2013-10-20 16:21:00,
2013-10-20 12:26:00,54.3,39.0,30.11,North,1,2.0,6.0,56,0.00,,SKC,0.00,VWS V14.01,2013-10-20 16:26:00,
2013-10-20 12:30:00,54.7,39.8,30.10,WNW,302,1.0,6.0,57,0.00,,SKC,0.00,VWS V14.01,2013-10-20 16:30:00,
2013-10-20 12:31:00,54.8,39.4,30.10,North,11,3.0,3.0,56,0.00,,SKC,0.00,VWS V14.01,2013-10-20 16:31:00,
2013-10-20 12:36:00,55.2,37.9,30.10,SW,224,0.0,3.0,52,0.00,,SKC,0.00,VWS V14.01,2013-10-20 16:36:00,
2013-10-20 12:41:00,55.6,37.3,30.10,NNW,327,1.0,5.0,50,0.00,,SKC,0.00,VWS V14.01,2013-10-20 16:41:00,
2013-10-20 12:46:00,55.9,36.0,30.10,NNE,13,5.0,5.0,47,0.00,,SKC,0.00,VWS V14.01,2013-10-20 16:46:00,
2013-10-20 12:51:00,55.9,34.3,30.10,WSW,256,1.0,6.0,44,0.00,,SKC,0.00,VWS V14.01,2013-10-20 16:51:00,
2013-10-20 12:56:00,56.3,35.2,30.10,NNE,15,1.0,6.0,45,0.00,,SKC,0.00,VWS V14.01,2013-10-20 16:56:00,
2013-10-20 13:00:00,56.7,33.3,30.10,North,359,3.0,6.0,41,0.00,,SKC,0.00,VWS V14.01,2013-10-20 17:00:00,
2013-10-20 13:01:00,56.7,33.3,30.10,NW,321,2.0,5.0,41,0.00,,SKC,0.00,VWS V14.01,2013-10-20 17:01:00,
2013-10-20 13:06:00,56.7,35.0,30.10,NNE,29,2.0,5.0,44,0.00,,SKC,0.00,VWS V14.01,2013-10-20 17:06:00,
2013-10-20 13:11:00,57.1,38.7,30.09,NNE,25,0.0,5.0,50,0.00,,SKC,0.00,VWS V14.01,2013-10-20 17:11:00,
2013-10-20 13:16:00,57.8,36.6,30.09,North,354,3.0,5.0,45,0.00,,SKC,0.00,VWS V14.01,2013-10-20 17:16:00,
2013-10-20 13:21:00,58.2,37.0,30.09,West,274,1.0,5.0,45,0.00,,SKC,0.00,VWS V14.01,2013-10-20 17:21:00,
2013-10-20 13:26:00,58.4,32.9,30.09,WSW,252,3.0,5.0,38,0.00,,SKC,0.00,VWS V14.01,2013-10-20 17:26:00,
2013-10-20 13:30:00,58.7,33.2,30.09,NNW,331,1.0,5.0,38,0.00,,SKC,0.00,VWS V14.01,2013-10-20 17:30:00,
2013-10-20 13:31:00,58.8,31.9,30.09,NNW,332,1.0,1.0,36,0.00,,SKC,0.00,VWS V14.01,2013-10-20 17:31:00,
2013-10-20 13:36:00,59.3,30.2,30.09,SE,138,2.0,3.0,33,0.00,,SKC,0.00,VWS V14.01,2013-10-20 17:36:00,
2013-10-20 13:41:00,59.8,34.2,30.08,SSE,155,0.0,3.0,38,0.00,,SKC,0.00,VWS V14.01,2013-10-20 17:41:00,
2013-10-20 13:46:00,60.5,32.7,30.08,WNW,288,3.0,3.0,35,0.00,,SKC,0.00,VWS V14.01,2013-10-20 17:46:00,
2013-10-20 13:51:00,60.2,30.2,30.08,WSW,253,0.0,3.0,32,0.00,,SKC,0.00,VWS V14.01,2013-10-20 17:51:00,
2013-10-20 13:56:00,60.1,30.9,30.07,WNW,287,1.0,3.0,33,0.00,,SKC,0.00,VWS V14.01,2013-10-20 17:56:00,
2013-10-20 14:00:00,60.4,29.6,30.07,North,6,4.0,4.0,31,0.00,,SKC,0.00,VWS V14.01,2013-10-20 18:00:00,
2013-10-20 14:05:00,60.5,29.7,30.07,SSW,208,2.0,5.0,31,0.00,,SKC,0.00,VWS V14.01,2013-10-20 18:05:00,
2013-10-20 14:10:00,60.8,26.6,30.07,SSW,210,1.0,5.0,27,0.00,,SKC,0.00,VWS V14.01,2013-10-20 18:10:00,
2013-10-20 14:15:00,61.7,31.6,30.06,NW,308,2.0,5.0,32,0.00,,SKC,0.00,VWS V14.01,2013-10-20 18:15:00,
2013-10-20 14:20:00,62.0,32.6,30.06,SSW,201,2.0,5.0,33,0.00,,SKC,0.00,VWS V14.01,2013-10-20 18:20:00,
2013-10-20 14:25:00,62.9,31.0,30.06,SSE,163,0.0,5.0,30,0.00,,SKC,0.00,VWS V14.01,2013-10-20 18:25:00,
2013-10-20 14:30:00,62.8,29.2,30.06,NNW,338,3.0,4.0,28,0.00,,SKC,0.00,VWS V14.01,2013-10-20 18:30:00,
2013-10-20 14:35:00,62.2,30.4,30.06,NNW,332,1.0,4.0,30,0.00,,SKC,0.00,VWS V14.01,2013-10-20 18:35:00,
2013-10-20 14:40:00,62.2,29.6,30.06,WNW,300,1.0,4.0,29,0.00,,SKC,0.00,VWS V14.01,2013-10-20 18:40:00,
2013-10-20 14:45:00,62.9,29.3,30.05,SSW,207,0.0,5.0,28,0.00,,SKC,0.00,VWS V14.01,2013-10-20 18:45:00,
2013-10-20 14:50:00,63.3,33.7,30.05,SSE,148,0.0,5.0,33,0.00,,SKC,0.00,VWS V14.01,2013-10-20 18:50:00,
2013-10-20 14:55:00,63.5,32.3,30.05,NW,316,2.0,5.0,31,0.00,,SKC,0.00,VWS V14.01,2013-10-20 18:55:00,
2013-10-20 15:00:00,63.0,31.9,30.05,NNW,329,3.0,4.0,31,0.00,,SKC,0.00,VWS V14.01,2013-10-20 19:00:00,
2013-10-20 15:05:00,62.6,30.8,30.05,North,354,2.0,4.0,30,0.00,,SKC,0.00,VWS V14.01,2013-10-20 19:05:00,
2013-10-20 15:10:00,63.4,33.8,30.05,WSW,246,0.0,4.0,33,0.00,,SKC,0.00,VWS V14.01,2013-10-20 19:10:00,
2013-10-20 15:15:00,63.3,30.5,30.05,NNE,32,2.0,5.0,29,0.00,,SKC,0.00,VWS V14.01,2013-10-20 19:15:00,
2013-10-20 15:20:00,63.4,32.3,30.05,NNW,332,1.0,5.0,31,0.00,,SKC,0.00,VWS V14.01,2013-10-20 19:20:00,
2013-10-20 15:25:00,63.6,31.6,30.05,NE,34,2.0,5.0,30,0.00,,SKC,0.00,VWS V14.01,2013-10-20 19:25:00,
2013-10-20 15:30:00,63.4,32.3,30.04,NNW,346,3.0,3.0,31,0.00,,SKC,0.00,VWS V14.01,2013-10-20 19:30:00,
2013-10-20 15:35:00,63.3,33.7,30.04,NE,34,3.0,4.0,33,0.00,,SKC,0.00,VWS V14.01,2013-10-20 19:35:00,
2013-10-20 15:40:00,63.5,33.9,30.04,NE,39,1.0,4.0,33,0.00,,SKC,0.00,VWS V14.01,2013-10-20 19:40:00,
2013-10-20 15:45:00,63.7,31.7,30.04,NE,43,0.0,4.0,30,0.00,,SKC,0.00,VWS V14.01,2013-10-20 19:45:00,
2013-10-20 15:50:00,64.6,35.6,30.05,NNE,23,1.0,4.0,34,0.00,,SKC,0.00,VWS V14.01,2013-10-20 19:50:00,
2013-10-20 15:55:00,64.3,32.2,30.05,NNE,16,2.0,6.0,30,0.00,,SKC,0.00,VWS V14.01,2013-10-20 19:55:00,
2013-10-20 16:00:00,63.9,31.0,30.05,NE,53,2.0,3.0,29,0.00,,SKC,0.00,VWS V14.01,2013-10-20 20:00:00,
2013-10-20 16:05:00,63.8,34.2,30.05,NE,41,0.0,3.0,33,0.00,,SKC,0.00,VWS V14.01,2013-10-20 20:05:00,
2013-10-20 16:10:00,64.2,33.0,30.05,NW,324,2.0,4.0,31,0.00,,SKC,0.00,VWS V14.01,2013-10-20 20:10:00,
2013-10-20 16:15:00,64.3,33.0,30.05,NW,317,3.0,4.0,31,0.00,,SKC,0.00,VWS V14.01,2013-10-20 20:15:00,
2013-10-20 16:20:00,64.0,32.8,30.04,NW,315,1.0,4.0,31,0.00,,SKC,0.00,VWS V14.01,2013-10-20 20:20:00,
2013-10-20 16:25:00,64.4,32.3,30.05,NNE,13,0.0,4.0,30,0.00,,SKC,0.00,VWS V14.01,2013-10-20 20:25:00,
2013-10-20 16:30:00,65.4,33.2,30.05,SSE,153,0.0,0.0,30,0.00,,SKC,0.00,VWS V14.01,2013-10-20 20:30:00,
2013-10-20 16:35:00,65.8,31.8,30.05,NNE,22,2.0,6.0,28,0.00,,SKC,0.00,VWS V14.01,2013-10-20 20:35:00,
2013-10-20 16:40:00,65.1,32.9,30.05,NNE,30,0.0,6.0,30,0.00,,SKC,0.00,VWS V14.01,2013-10-20 20:40:00,
2013-10-20 16:45:00,66.0,32.9,30.05,NE,38,0.0,6.0,29,0.00,,SKC,0.00,VWS V14.01,2013-10-20 20:45:00,
2013-10-20 16:50:00,65.6,33.4,30.05,NW,322,0.0,6.0,30,0.00,,SKC,0.00,VWS V14.01,2013-10-20 20:50:00,
2013-10-20 16:55:00,65.2,34.6,30.05,NNE,15,2.0,6.0,32,0.00,,SKC,0.00,VWS V14.01,2013-10-20 20:55:00,
2013-10-20 17:00:00,65.0,32.8,30.05,NNW,328,3.0,3.0,30,0.00,,SKC,0.00,VWS V14.01,2013-10-20 21:00:00,
2013-10-20 17:05:00,65.4,34.0,30.05,NNW,327,1.0,3.0,31,0.00,,SKC,0.00,VWS V14.01,2013-10-20 21:05:00,
2013-10-20 17:10:00,65.8,33.5,30.05,SW,233,1.0,3.0,30,0.00,,SKC,0.00,VWS V14.01,2013-10-20 21:10:00,
2013-10-20 17:15:00,65.2,35.4,30.05,SSW,200,2.0,4.0,33,0.00,,SKC,0.00,VWS V14.01,2013-10-20 21:15:00,
2013-10-20 17:20:00,64.6,36.3,30.04,NNW,334,3.0,6.0,35,0.00,,SKC,0.00,VWS V14.01,2013-10-20 21:20:00,
2013-10-20 17:25:00,63.9,37.1,30.04,WNW,289,2.0,6.0,37,0.00,,SKC,0.00,VWS V14.01,2013-10-20 21:25:00,
2013-10-20 17:30:00,63.5,38.1,30.04,West,259,1.0,3.0,39,0.00,,SKC,0.00,VWS V14.01,2013-10-20 21:30:00,
2013-10-20 17:35:00,63.2,37.9,30.05,NW,315,3.0,5.0,39,0.00,,SKC,0.00,VWS V14.01,2013-10-20 21:35:00,
2013-10-20 17:40:00,62.8,38.8,30.04,NNE,12,1.0,5.0,41,0.00,,SKC,0.00,VWS V14.01,2013-10-20 21:40:00,
2013-10-20 17:45:00,62.3,38.3,30.05,North,354,4.0,7.0,41,0.00,,SKC,0.00,VWS V14.01,2013-10-20 21:45:00,
2013-10-20 17:50:00,61.8,37.2,30.05,WNW,284,2.0,7.0,40,0.00,,SKC,0.00,VWS V14.01,2013-10-20 21:50:00,
2013-10-20 17:55:00,61.7,38.4,30.05,NNW,335,2.0,7.0,42,0.00,,SKC,0.00,VWS V14.01,2013-10-20 21:55:00,
2013-10-20 18:00:00,61.4,37.5,30.05,WNW,299,1.0,4.0,41,0.00,,SKC,0.00,VWS V14.01,2013-10-20 22:00:00,
2013-10-20 18:05:00,61.0,36.5,30.05,NW,326,6.0,6.0,40,0.00,,SKC,0.00,VWS V14.01,2013-10-20 22:05:00,
2013-10-20 18:10:00,60.7,36.9,30.05,North,355,3.0,6.0,41,0.00,,SKC,0.00,VWS V14.01,2013-10-20 22:10:00,
2013-10-20 18:15:00,60.4,36.6,30.05,WNW,302,2.0,6.0,41,0.00,,SKC,0.00,VWS V14.01,2013-10-20 22:15:00,
2013-10-20 18:20:00,60.1,36.3,30.05,NNW,337,2.0,6.0,41,0.00,,SKC,0.00,VWS V14.01,2013-10-20 22:20:00,
2013-10-20 18:25:00,59.4,36.3,30.05,NNW,330,1.0,6.0,42,0.00,,SKC,0.00,VWS V14.01,2013-10-20 22:25:00,
2013-10-20 18:30:00,58.6,36.8,30.05,North,355,1.0,1.0,44,0.00,,SKC,0.00,VWS V14.01,2013-10-20 22:30:00,
2013-10-20 18:35:00,58.0,36.2,30.06,ENE,63,2.0,5.0,44,0.00,,SKC,0.00,VWS V14.01,2013-10-20 22:35:00,
2013-10-20 18:40:00,57.5,36.9,30.06,North,1,0.0,5.0,46,0.00,,SKC,0.00,VWS V14.01,2013-10-20 22:40:00,
2013-10-20 18:45:00,57.0,35.9,30.06,North,360,0.0,5.0,45,0.00,,SKC,0.00,VWS V14.01,2013-10-20 22:45:00,
2013-10-20 18:50:00,56.6,37.2,30.07,NNE,13,0.0,5.0,48,0.00,,SKC,0.00,VWS V14.01,2013-10-20 22:50:00,
2013-10-20 18:55:00,55.9,36.5,30.07,NNE,13,0.0,5.0,48,0.00,,SKC,0.00,VWS V14.01,2013-10-20 22:55:00,
2013-10-20 19:00:00,55.2,38.4,30.07,NNE,13,1.0,1.0,53,0.00,,SKC,0.00,VWS V14.01,2013-10-20 23:00:00,
2013-10-20 19:05:00,54.4,36.7,30.07,North,6,0.0,1.0,51,0.00,,SKC,0.00,VWS V14.01,2013-10-20 23:05:00,
2013-10-20 19:10:00,54.4,37.6,30.07,North,6,0.0,1.0,53,0.00,,SKC,0.00,VWS V14.01,2013-10-20 23:10:00,
2013-10-20 19:15:00,53.9,36.7,30.07,North,8,0.0,1.0,52,0.00,,SKC,0.00,VWS V14.01,2013-10-20 23:15:00,
2013-10-20 19:20:00,53.6,37.4,30.07,North,8,0.0,1.0,54,0.00,,SKC,0.00,VWS V14.01,2013-10-20 23:20:00,
2013-10-20 19:25:00,53.2,36.5,30.08,North,8,0.0,1.0,53,0.00,,SKC,0.00,VWS V14.01,2013-10-20 23:25:00,
2013-10-20 19:30:00,53.4,36.2,30.08,North,6,0.0,0.0,52,0.00,,SKC,0.00,VWS V14.01,2013-10-20 23:30:00,
2013-10-20 19:35:00,53.4,36.2,30.08,North,6,0.0,1.0,52,0.00,,SKC,0.00,VWS V14.01,2013-10-20 23:35:00,
2013-10-20 19:40:00,53.2,36.5,30.08,North,6,0.0,1.0,53,0.00,,SKC,0.00,VWS V14.01,2013-10-20 23:40:00,
2013-10-20 19:45:00,52.6,37.4,30.08,North,6,0.0,1.0,56,0.00,,SKC,0.00,VWS V14.01,2013-10-20 23:45:00,
2013-10-20 19:50:00,52.4,35.8,30.08,North,6,0.0,1.0,53,0.00,,SKC,0.00,VWS V14.01,2013-10-20 23:50:00,
2013-10-20 19:55:00,52.2,38.8,30.09,North,6,0.0,1.0,60,0.00,,SKC,0.00,VWS V14.01,2013-10-20 23:55:00,
2013-10-20 20:00:00,51.4,38.8,30.09,North,8,2.0,2.0,62,0.00,,SKC,0.00,VWS V14.01,2013-10-21 00:00:00,
2013-10-20 20:05:00,50.5,38.8,30.09,North,9,1.0,2.0,64,0.00,,SKC,0.00,VWS V14.01,2013-10-21 00:05:00,
2013-10-20 20:10:00,49.4,38.9,30.10,North,10,2.0,2.0,67,0.00,,SKC,0.00,VWS V14.01,2013-10-21 00:10:00,
2013-10-20 20:15:00,49.2,36.8,30.10,North,10,0.0,2.0,62,0.00,,SKC,0.00,VWS V14.01,2013-10-21 00:15:00,
2013-10-20 20:20:00,49.4,37.3,30.10,North,10,0.0,2.0,63,0.00,,SKC,0.00,VWS V14.01,2013-10-21 00:20:00,
2013-10-20 20:25:00,49.2,38.3,30.10,North,10,0.0,2.0,66,0.00,,SKC,0.00,VWS V14.01,2013-10-21 00:25:00,
2013-10-20 20:30:00,48.5,38.1,30.10,North,10,0.0,0.0,67,0.00,,SKC,0.00,VWS V14.01,2013-10-21 00:30:00,
2013-10-20 20:35:00,47.8,37.8,30.10,North,10,0.0,0.0,68,0.00,,SKC,0.00,VWS V14.01,2013-10-21 00:35:00,
2013-10-20 20:40:00,47.3,38.7,30.10,North,11,0.0,0.0,72,0.00,,SKC,0.00,VWS V14.01,2013-10-21 00:40:00,
2013-10-20 20:45:00,46.8,39.0,30.10,North,11,0.0,0.0,74,0.00,,SKC,0.00,VWS V14.01,2013-10-21 00:45:00,
2013-10-20 20:50:00,46.4,39.3,30.10,North,10,0.0,0.0,76,0.00,,SKC,0.00,VWS V14.01,2013-10-21 00:50:00,
2013-10-20 20:55:00,46.1,39.3,30.11,North,10,0.0,0.0,77,0.00,,SKC,0.00,VWS V14.01,2013-10-21 00:55:00,
2013-10-20 21:00:00,46.1,39.6,30.11,North,11,0.0,0.0,78,0.00,,SKC,0.00,VWS V14.01,2013-10-21 01:00:00,
2013-10-20 21:05:00,45.8,39.7,30.11,North,10,0.0,0.0,79,0.00,,SKC,0.00,VWS V14.01,2013-10-21 01:05:00,
2013-10-20 21:10:00,45.5,39.7,30.11,North,10,0.0,1.0,80,0.00,,SKC,0.00,VWS V14.01,2013-10-21 01:10:00,
2013-10-20 21:15:00,45.2,40.0,30.11,North,11,0.0,1.0,82,0.00,,SKC,0.00,VWS V14.01,2013-10-21 01:15:00,
2013-10-20 21:20:00,45.0,39.8,30.11,North,10,0.0,1.0,82,0.00,,SKC,0.00,VWS V14.01,2013-10-21 01:20:00,
2013-10-20 21:25:00,44.8,40.0,30.11,North,11,0.0,1.0,83,0.00,,SKC,0.00,VWS V14.01,2013-10-21 01:25:00,
2013-10-20 21:30:00,44.4,39.9,30.11,North,10,0.0,0.0,84,0.00,,SKC,0.00,VWS V14.01,2013-10-21 01:30:00,
2013-10-20 21:35:00,44.2,39.7,30.11,North,11,0.0,0.0,84,0.00,,SKC,0.00,VWS V14.01,2013-10-21 01:35:00,
2013-10-20 21:40:00,43.9,39.4,30.11,North,11,0.0,0.0,84,0.00,,SKC,0.00,VWS V14.01,2013-10-21 01:40:00,
2013-10-20 21:45:00,43.5,39.0,30.11,North,10,0.0,0.0,84,0.00,,SKC,0.00,VWS V14.01,2013-10-21 01:45:00,
2013-10-20 21:50:00,43.2,39.0,30.12,North,11,0.0,0.0,85,0.00,,SKC,0.00,VWS V14.01,2013-10-21 01:50:00,
2013-10-20 21:55:00,43.1,39.2,30.12,North,10,0.0,0.0,86,0.00,,SKC,0.00,VWS V14.01,2013-10-21 01:55:00,
2013-10-20 22:00:00,43.0,39.4,30.12,North,11,0.0,0.0,87,0.00,,SKC,0.00,VWS V14.01,2013-10-21 02:00:00,
2013-10-20 22:05:00,42.8,38.9,30.12,North,10,0.0,0.0,86,0.00,,SKC,0.00,VWS V14.01,2013-10-21 02:05:00,
2013-10-20 22:10:00,42.5,38.9,30.12,North,11,0.0,0.0,87,0.00,,SKC,0.00,VWS V14.01,2013-10-21 02:10:00,
2013-10-20 22:15:00,42.4,39.1,30.13,North,10,0.0,0.0,88,0.00,,SKC,0.00,VWS V14.01,2013-10-21 02:15:00,
2013-10-20 22:20:00,42.3,39.0,30.13,North,10,0.0,0.0,88,0.00,,SKC,0.00,VWS V14.01,2013-10-21 02:20:00,
2013-10-20 22:25:00,41.9,38.6,30.13,North,11,0.0,0.0,88,0.00,,SKC,0.00,VWS V14.01,2013-10-21 02:25:00,
2013-10-20 22:30:00,41.7,38.7,30.13,North,10,0.0,0.0,89,0.00,,SKC,0.00,VWS V14.01,2013-10-21 02:30:00,
2013-10-20 22:35:00,41.5,38.8,30.13,North,10,0.0,0.0,90,0.00,,SKC,0.00,VWS V14.01,2013-10-21 02:35:00,
2013-10-20 22:40:00,41.3,38.6,30.13,North,11,0.0,0.0,90,0.00,,SKC,0.00,VWS V14.01,2013-10-21 02:40:00,
2013-10-20 22:45:00,41.2,38.5,30.13,North,11,0.0,0.0,90,0.00,,SKC,0.00,VWS V14.01,2013-10-21 02:45:00,
2013-10-20 22:50:00,41.2,38.5,30.13,North,10,0.0,0.0,90,0.00,,SKC,0.00,VWS V14.01,2013-10-21 02:50:00,
2013-10-20 22:55:00,41.0,38.6,30.13,North,11,0.0,0.0,91,0.00,,SKC,0.00,VWS V14.01,2013-10-21 02:55:00,
2013-10-20 23:00:00,40.8,38.4,30.13,North,11,0.0,0.0,91,0.00,,SKC,0.00,VWS V14.01,2013-10-21 03:00:00,
2013-10-20 23:05:00,40.5,38.1,30.13,North,11,0.0,0.0,91,0.00,,SKC,0.00,VWS V14.01,2013-10-21 03:05:00,
2013-10-20 23:10:00,40.3,37.9,30.13,North,10,0.0,0.0,91,0.00,,SKC,0.00,VWS V14.01,2013-10-21 03:10:00,
2013-10-20 23:15:00,40.1,38.0,30.13,North,11,0.0,0.0,92,0.00,,SKC,0.00,VWS V14.01,2013-10-21 03:15:00,
2013-10-20 23:20:00,39.9,37.8,30.13,North,10,0.0,0.0,92,0.00,,SKC,0.00,VWS V14.01,2013-10-21 03:20:00,
2013-10-20 23:25:00,39.6,37.8,30.13,North,10,0.0,0.0,93,0.00,,SKC,0.00,VWS V14.01,2013-10-21 03:25:00,
2013-10-20 23:30:00,39.4,37.5,30.13,North,10,0.0,0.0,93,0.00,,SKC,0.00,VWS V14.01,2013-10-21 03:30:00,
2013-10-20 23:35:00,39.3,37.7,30.13,North,11,0.0,0.0,94,0.00,,SKC,0.00,VWS V14.01,2013-10-21 03:35:00,
2013-10-20 23:40:00,39.2,37.6,30.13,North,10,0.0,0.0,94,0.00,,SKC,0.00,VWS V14.01,2013-10-21 03:40:00,
2013-10-20 23:45:00,39.1,37.5,30.13,North,11,0.0,0.0,94,0.00,,SKC,0.00,VWS V14.01,2013-10-21 03:45:00,
2013-10-20 23:50:00,38.9,37.3,30.13,North,11,0.0,0.0,94,0.00,,SKC,0.00,VWS V14.01,2013-10-21 03:50:00,
2013-10-20 23:55:00,38.9,37.6,30.13,North,11,0.0,0.0,95,0.00,,SKC,0.00,VWS V14.01,2013-10-21 03:55:00,